World > North America > United States > New York > Buel

Buel, NY Hourly Weather Conditions

Feedback E-mail the Weather

Quick WX

Buel, NY Weather Maps

°F °C°F °C
Buel Weather Map
UTC Time: 11/27/2022, 18:58
Your Time:

Buel, NY Regional Weather

Expires:202211271900;;902155
ASUS41 KALY 271810
RWRALY

NEW YORK STATE HOURLY WEATHER ROUNDUP
NATIONAL WEATHER SERVICE ALBANY NY
100 PM EST SUN NOV 27 2022

NOTE: "FAIR" INDICATES FEW OR NO CLOUDS BELOW 12,000 FEET WITH NO
SIGNIFICANT WEATHER AND/OR NO OBSTRUCTIONS TO VISIBILITY.


NYZ032-033-038>043-046>054-057>066-NYZ062>081-082-084-271900-
EAST

  
CITY           SKY/WX    TMP DP  RH WIND       PRES   REMARKS
ALBANY         LGT RAIN  46  32  58 S3        29.67F                  
GLENS FALLS    CLOUDY    46  27  47 S5        29.66F                  
POUGHKEEPSIE   LGT RAIN  50  36  58 SE5       29.68F                  
NEWBURGH       DRIZZLE   48  37  66 VRB5      29.69F FOG              
MONTGOMERY     LGT RAIN  45  36  70 SW3       29.67F                  
WHITE PLAINS   LGT RAIN  49  40  71 VRB3      29.71F                  
ISLIP          CLOUDY    56  47  71 SW12G20   29.72F                  
NEW YORK CITY  LGT RAIN  52  39  61 S8        29.71F                  
CENTRAL PARK   LGT RAIN  50  44  80 CALM      29.73F                  
$$


SKY/WX - Weather  TMP - Temperature  DP - Dew Point  RH - Humidity
WIND - Wind Direction/Speed PRES - Barometric Pressure VSB - Visibility
WCI - Wind Chill Index E13G22 Wind - East Wind 13 mph/Gusts of 22 mph

Trending Headlines

Trending Entertainment Headlines

Buel Radar Loop

Use the map search tool if you want to place a location marker on the radar map...

Buel Quick Facts

National Two Day Weather Forecast


E-mail the Buel Weather Forecast

Voice your opinion or tell us about page issues...